Regional Weather Roundup
Issued by NWS

Home | Current Version | Previous Version | Text Only | Print | Product List | Glossary Off
Versions: 1 2 3 4 5 6 7 8 9 10 11 12 13 14 15 16 17 18 19 20 21 22 23 24 25 26 27 28 29 30 31 32 33 34 35 36 37 38 39 40 41 42 43 44 45 46 47 48 49 50

000
ASUS43 KOAX 241202
RWRNE

WEATHER ROUNDUP FOR NEBRASKA
NATIONAL WEATHER SERVICE OMAHA NE
700 AM CDT SAT JUN 24 2017

NOTES: SATELLITE DATA IS BEING USED TO AUGMENT CLOUD COVER ABOVE
       12000 FEET.
       "FAIR" INDICATES FEW OR NO CLOUDS BELOW 12,000 FEET WITH NO
       SIGNIFICANT WEATHER AND/OR OBSTRUCTIONS TO VISIBILITY.

  * THESE STATIONS DO NOT REPORT WEATHER SUCH AS RAIN...SNOW OR FOG.

NEZ001>004-019>022-054>056-241300-
NEBRASKA PANHANDLE

CITY           SKY/WX    TMP DP  RH WIND       PRES   REMARKS
SCOTTSBLUFF    CLOUDY    55  39  54 CALM      30.30R
6HR MIN TEMP:  53; 6HR MAX TEMP:  57;

ALLIANCE       CLOUDY    50  44  80 W5        30.28R
6HR MIN TEMP:  45; 6HR MAX TEMP:  50;

CHADRON        CLOUDY    45  38  76 CALM      30.27R
6HR MIN TEMP:  41; 6HR MAX TEMP:  46;

GORDON         FAIR      43  36  78 SW3       30.27R
6HR MIN TEMP:  40; 6HR MAX TEMP:  46;

KIMBALL        CLOUDY    52  42  66 E3        30.32R
SIDNEY         CLOUDY    53  40  61 NE5       30.31R
6HR MIN TEMP:  44; 6HR MAX TEMP:  55; 6HR PCP: TRACE;

$$

NEZ057>060-069>072-079>082-241300-
SOUTHWEST NEBRASKA

CITY           SKY/WX    TMP DP  RH WIND       PRES   REMARKS
NORTH PLATTE   CLOUDY    51  43  74 NW3       30.26R
6HR MIN TEMP:  45; 6HR MAX TEMP:  51;

IMPERIAL       CLOUDY    55  47  74 CALM      30.27R
6HR MIN TEMP:  49; 6HR MAX TEMP:  55;

LEXINGTON      CLOUDY    51  46  83 CALM      30.25R
MCCOOK         PTCLDY    48  46  93 W3        30.26R
6HR MIN TEMP:  47; 6HR MAX TEMP:  59;

OGALLALA       CLOUDY    55  46  71 CALM      30.28R
$$

NEZ005>010-023>029-035>040-094-241300-
NORTH CENTRAL NEBRASKA

CITY           SKY/WX    TMP DP  RH WIND       PRES   REMARKS
VALENTINE      CLEAR     43  34  70 SW6       30.23R
6HR MIN TEMP:  39; 6HR MAX TEMP:  50;

AINSWORTH      CLEAR     46  40  80 W7        30.23R
BROKEN BOW     CLOUDY    51  43  74 SW5       30.24R
6HR MIN TEMP:  43; 6HR MAX TEMP:  51;

O`NEILL        PTCLDY    46  39  75 W7        30.19S
ORD            MOCLDY    47  40  76 NW3       30.22R
6HR MIN TEMP:  41; 6HR MAX TEMP:  53;

THEDFORD       CLOUDY    51  40  67 CALM      30.26R
$$

NEZ041-046>049-061>064-073>077-083>087-241300-
SOUTH CENTRAL NEBRASKA

CITY           SKY/WX    TMP DP  RH WIND       PRES   REMARKS
GRAND ISLAND   CLOUDY    52  45  77 W7        30.23R
6HR MIN TEMP:  47; 6HR MAX TEMP:  57;

AURORA         PTCLDY    50  45  82 NW7       30.21S
HASTINGS       CLOUDY    52  43  71 W6        30.24R
6HR MIN TEMP:  49; 6HR MAX TEMP:  57;

HEBRON         CLEAR     52  47  84 CALM      30.21S
HOLDREGE       CLOUDY    51  44  77 CALM      30.23S
KEARNEY *      CLOUDY    54  41  62 NW6       30.24R
$$

NEZ011>018-030>034-042>045-241300-
NORTHEAST NEBRASKA

CITY           SKY/WX    TMP DP  RH WIND       PRES   REMARKS
NORFOLK        CLEAR     50  40  68 CALM      30.18R
6HR MIN TEMP:  45; 6HR MAX TEMP:  52;

ALBION         CLEAR     43  39  86 CALM      30.20S
BLAIR          SUNNY     53  43  69 NW6       30.17R
FREMONT        SUNNY     51  44  78 W6        30.18R
TEKAMAH        SUNNY     53  42  66 W7        30.16R
6HR MIN TEMP:  49; 6HR MAX TEMP:  57;

WAYNE          SUNNY     47  44  88 CALM      30.17R
$$

NEZ050>053-065>068-078-088>093-241300-
SOUTHEAST NEBRASKA

CITY           SKY/WX    TMP DP  RH WIND       PRES   REMARKS
LINCOLN        CLEAR     50  46  86 N5        30.20R
6HR MIN TEMP:  47; 6HR MAX TEMP:  54;

OMAHA EPPLEY   SUNNY     55  48  77 N3        30.16R
6HR MIN TEMP:  52; 6HR MAX TEMP:  60;

BEATRICE       CLEAR     52  49  89 CALM      30.20R
FALLS CITY     SUNNY     54  49  83 NW7       30.16R
6HR MIN TEMP:  52; 6HR MAX TEMP:  59;

NEBRASKA CITY  SUNNY     55  48  79 NW6       30.17R
PLATTSMOUTH    SUNNY     54  47  77 W6        30.17R
$$

NEZ044-045-051>053-067-241300-
OMAHA AREA

CITY           SKY/WX    TMP DP  RH WIND       PRES   REMARKS
OMAHA EPPLEY   SUNNY     55  48  77 N3        30.16R
6HR MIN TEMP:  52; 6HR MAX TEMP:  60;

BLAIR          SUNNY     53  43  69 NW6       30.17R
FREMONT        SUNNY     51  44  78 W6        30.18R
MILLARD        SUNNY     54  47  76 CALM      30.17R
OFFUTT AFB     SUNNY     53  46  77 NW8       30.16R
PLATTSMOUTH    SUNNY     54  47  77 W6        30.17R
WAHOO          FAIR      55  42  62 NW6       30.18R
$$




USA.gov is the U.S. government's official web portal to all federal, state and local government web resources and services.